Flag for Norway Weather past 2 weeks in Fredrikstad, Norway

Now
55 °F

Fog.


Feels Like: 55 °F
Forecast: 55 / 58 °F
Wind: 2 mph from North

Location: Rygge

Current Time: Aug 31, 2015 at 8:48:19 AM

Latest Report: Aug 31, 2015 at 7:50 AM


Visibility: 0 mi

Pressure: 30.04 "Hg

Humidity: 100%

Dew point: 55 °F

Location of FredrikstadLocation

Historic Weather in Fredrikstad — Graph

°F

Fredrikstad temperature yesterday

Maximum temperature yesterday: 68 °F (at 1:20 PM)
Minimum temperature yesterday: 54 °F (at 5:50 AM)
Average temperature yesterday: 61 °F

Past Weeks' High & Low Weather Summary

 TemperatureHumidityPressure
High77 °F (Aug 23, 2:50 PM)100% (Aug 21, 5:20 AM)30.39 "Hg (Aug 21, 5:20 AM)
Low45 °F (Aug 22, 5:20 AM)32% (Aug 23, 3:20 PM)29.53 "Hg (Aug 27, 2:20 PM)
Average62 °F74%30.05 "Hg
* Reported Aug 16 7:20 AM — Aug 31 7:20 AM, Fredrikstad, Weather by CustomWeather, © 2015

Note: Actual official high and low records may vary slightly from our data, if they occured in-between our weather recording intervals... More about our weather records

Advertising

Fredrikstad weather history for previous 24 hours

 ConditionsComfort  
Time TempWeatherWind HumidityBarometerVisibility
7:20 AM
Mon, Aug 31
52 °FFog.3 mph100%30.04 "Hg0 mi
6:50 AM52 °FFog.1 mph100%30.04 "Hg0 mi
6:20 AM54 °FFog.No wind100%30.04 "Hg0 mi
5:50 AM52 °FFog.3 mph100%30.04 "Hg0 mi
5:20 AM52 °FFog.2 mph100%30.04 "Hg0 mi
4:50 AM52 °FFog.No wind100%30.04 "Hg0 mi
4:20 AM54 °FFog.2 mph100%30.04 "Hg0 mi
3:50 AM54 °FLight fog.2 mph100%30.04 "Hg0 mi
3:20 AM55 °FFog.3 mph100%30.04 "Hg0 mi
2:50 AM55 °FFog.1 mph100%30.07 "Hg0 mi
2:20 AM57 °FCool.5 mph100%30.07 "HgN/A
1:50 AM59 °FCool.6 mph94%30.07 "Hg5 mi
1:20 AM57 °FCool.5 mph100%30.07 "HgN/A
12:50 AM59 °FCool.7 mph94%30.07 "HgN/A
12:20 AM59 °FCool.7 mph94%30.07 "HgN/A
11:50 PM
Sun, Aug 30
59 °FCool.8 mph94%30.07 "HgN/A
11:20 PM57 °FClear.8 mph94%30.07 "Hg10 mi
10:50 PM57 °FClear.7 mph94%30.07 "Hg10 mi
10:20 PM57 °FClear.6 mph94%30.07 "Hg10 mi
9:20 PM61 °FSunny.7 mph83%30.07 "Hg10 mi
8:50 PM61 °FSunny.7 mph83%30.07 "Hg10 mi
8:20 PM63 °FSunny.8 mph77%30.07 "Hg10 mi
7:50 PM63 °FSunny.9 mph83%30.07 "Hg10 mi
7:20 PM64 °FSunny.10 mph78%30.07 "Hg10 mi
6:50 PM64 °FSunny.13 mph78%30.07 "Hg10 mi
6:20 PM64 °FSunny.14 mph73%30.07 "Hg10 mi
5:50 PM66 °FSunny.13 mph68%30.07 "Hg10 mi
5:20 PM64 °FSunny.13 mph73%30.07 "Hg10 mi
4:50 PM66 °FSunny.15 mph64%30.07 "Hg10 mi
4:20 PM64 °FSunny.13 mph68%30.07 "Hg10 mi
3:50 PM68 °FPassing clouds.13 mph56%30.07 "HgN/A
3:20 PM68 °FSunny.14 mph56%30.07 "Hg10 mi
2:50 PM68 °FPassing clouds.12 mph56%30.07 "HgN/A
2:20 PM66 °FSunny.13 mph60%30.07 "Hg10 mi
1:50 PM68 °FPassing clouds.10 mph53%30.07 "HgN/A
1:20 PM68 °FPassing clouds.8 mph56%30.07 "HgN/A
12:50 PM66 °FPassing clouds.9 mph56%30.07 "HgN/A
12:20 PM66 °FPassing clouds.8 mph56%30.07 "HgN/A
11:50 AM64 °FPassing clouds.7 mph56%30.07 "HgN/A
11:20 AM64 °FPassing clouds.7 mph60%30.07 "HgN/A
10:50 AM64 °FSunny.3 mph60%30.07 "Hg10 mi
10:20 AM63 °FPassing clouds.7 mph64%30.07 "HgN/A
9:20 AM61 °FPassing clouds.6 mph72%30.07 "HgN/A
8:50 AM59 °FPassing clouds.5 mph77%30.07 "HgN/A
8:20 AM59 °FPassing clouds.5 mph82%30.04 "HgN/A
Weather by CustomWeather, © 2015

See weather overviewHow to use our weather pages